Location: Chandolas
(44.4033°N, 4.2533°E)
Time: 02:56:59
(UTC+00:00)

Meteor 1-27 - Pass Details

Date: 15 November 2019
Orbit: 839 x 891 km, 81.3° (Epoch: 11 December)

Event Time Altitude Azimuth Distance (km) Brightness Sun altitude
Exits shadow 04:20:43 41° 328° (NNW) 1,271 4.8 -24.6°
Maximum altitude 04:22:42 65° 264° (W) 976 4.2 -24.2°
Drops below altitude 10° 04:28:27 10° 184° (S) 2,550 6.7 -23.2°
Sets 04:30:54 0° 181° (S) 3,483 7.4 -22.7°
